Weather History for Noatak, AK

Change the Weather History Date:

Sunday, August 25, 2013

  Actual Average Record
Temperature  
Mean Temperature 48 °F -  
Max Temperature 62 °F 54 °F 64 °F (2006)
Min Temperature 33 °F 38 °F 32 °F (2002)
Degree Days  
Heating Degree Days 18    
Moisture  
Dew Point 34 °F    
Average Humidity 62    
Maximum Humidity 87    
Minimum Humidity 37    
Precipitation  
Precipitation 0.00 in - - ()
Sea Level Pressure  
Sea Level Pressure 29.84 in    
Wind  
Wind Speed 7 mph (NE)    
Max Wind Speed 15 mph    
Max Gust Speed 20 mph    
Visibility 10 miles    
Events      
Averages and records for this station are not official NWS values.
T = Trace of Precipitation, MM = Missing Value Source: NWS Daily Summary

Daily Weather History Graph

Daily Weather History Graph

Search for Another Location

Airport:

Trip Planner

Search our weather history database for the weather conditions in past years. The results will help you decide how hot, cold, wet, or windy it might be!

Date:

Astronomy

Aug. 25, 2013 Rise Set
Actual Time 6:56 AM AKDT 10:48 PM AKDT
Civil Twilight 5:46 AM AKDT 11:57 PM AKDT
Nautical Twilight 3:26 AM AKDT 2:26 AM AKDT
Astronomical Twilight Sun does not rise Sun does not rise
Moon 10:25 PM AKDT (8/25) 3:07 PM AKDT (8/25)
Length of Visible Light 18h 11m
Length of Day
15h 51m
Waning Gibbous, 74% of the Moon is Illuminated
Aug 25
Waning Gibbous
Aug 28
Last Quarter
Sep 5
New
Sep 12
First Quarter
Sep 19
Full

Hourly Weather History & Observations

Time (AKDT) Temp. Windchill Dew Point Humidity Pressure Visibility Wind Dir Wind Speed Gust Speed Precip Events Conditions
12:16 AM 37.4 °F 33.8 °F 30.2 °F 75% 29.93 in 10.0 mi North 4.6 mph - N/A   Clear
12:36 AM 37.4 °F - 33.8 °F 87% 29.93 in 10.0 mi Calm Calm - N/A   Clear
12:56 AM 35.6 °F 31.7 °F 30.2 °F 81% 29.92 in 10.0 mi NNW 4.6 mph - N/A   Clear
1:16 AM 37.4 °F 32.1 °F 32.0 °F 81% 29.92 in 10.0 mi NNW 6.9 mph - N/A   Clear
1:36 AM 35.6 °F 30.7 °F 30.2 °F 81% 29.93 in 10.0 mi North 5.8 mph - N/A   Clear
1:56 AM 35.6 °F 29.2 °F 30.2 °F 81% 29.92 in 10.0 mi NNW 8.1 mph - N/A   Clear
2:16 AM 35.6 °F 30.7 °F 28.4 °F 75% 29.92 in 10.0 mi NNE 5.8 mph - N/A   Clear
2:36 AM 35.6 °F 29.9 °F 30.2 °F 81% 29.92 in 10.0 mi NNE 6.9 mph - N/A   Clear
2:56 AM 35.6 °F 29.9 °F 30.2 °F 81% 29.91 in 10.0 mi North 6.9 mph - N/A   Clear
3:16 AM 33.8 °F 27.7 °F 30.2 °F 87% 29.91 in 10.0 mi North 6.9 mph - N/A   Clear
3:36 AM 33.8 °F 28.6 °F 28.4 °F 81% 29.91 in 10.0 mi North 5.8 mph - N/A   Clear
3:56 AM 33.8 °F 27.7 °F 28.4 °F 81% 29.91 in 10.0 mi North 6.9 mph - N/A   Clear
4:16 AM 33.8 °F 27.7 °F 30.2 °F 87% 29.91 in 10.0 mi North 6.9 mph - N/A   Clear
4:36 AM 33.8 °F 27.0 °F 30.2 °F 87% 29.91 in 10.0 mi North 8.1 mph - N/A   Clear
4:56 AM 33.8 °F 27.0 °F 30.2 °F 87% 29.90 in 10.0 mi North 8.1 mph - N/A   Clear
5:16 AM 33.8 °F 27.0 °F 28.4 °F 81% 29.90 in 10.0 mi North 8.1 mph - N/A   Clear
5:36 AM 33.8 °F 27.0 °F 30.2 °F 87% 29.90 in 10.0 mi North 8.1 mph - N/A   Clear
5:56 AM 33.8 °F 27.7 °F 30.2 °F 87% 29.90 in 10.0 mi North 6.9 mph - N/A   Clear
6:16 AM 33.8 °F 27.0 °F 28.4 °F 81% 29.89 in 10.0 mi North 8.1 mph - N/A   Clear
6:36 AM 33.8 °F 25.3 °F 30.2 °F 87% 29.89 in 10.0 mi North 11.5 mph - N/A   Clear
6:56 AM 35.6 °F 29.2 °F 30.2 °F 81% 29.89 in 10.0 mi North 8.1 mph - N/A   Clear
7:16 AM 33.8 °F 28.6 °F 30.2 °F 87% 29.89 in 10.0 mi NNW 5.8 mph - N/A   Clear
7:36 AM 33.8 °F 28.6 °F 30.2 °F 87% 29.89 in 10.0 mi NNW 5.8 mph - N/A   Clear
7:56 AM 33.8 °F 28.6 °F 30.2 °F 87% 29.89 in 10.0 mi North 5.8 mph - N/A   Clear
8:16 AM 35.6 °F 30.7 °F 30.2 °F 81% 29.88 in 10.0 mi North 5.8 mph - N/A   Clear
8:36 AM 35.6 °F 29.9 °F 30.2 °F 81% 29.88 in 10.0 mi North 6.9 mph - N/A   Clear
8:56 AM 37.4 °F 31.4 °F 32.0 °F 81% 29.88 in 10.0 mi North 8.1 mph - N/A   Clear
9:16 AM 39.2 °F 33.0 °F 32.0 °F 75% 29.88 in 10.0 mi North 9.2 mph - N/A   Clear
9:36 AM 41.0 °F 36.4 °F 32.0 °F 70% 29.87 in 10.0 mi NNE 6.9 mph - N/A   Clear
9:56 AM 42.8 °F 37.0 °F 32.0 °F 66% 29.87 in 10.0 mi NNE 10.4 mph - N/A   Clear
10:16 AM 44.6 °F 39.7 °F 33.8 °F 66% 29.86 in 10.0 mi NNE 9.2 mph - N/A   Clear
10:36 AM 44.6 °F 39.7 °F 33.8 °F 66% 29.86 in 10.0 mi NNE 9.2 mph - N/A   Clear
10:56 AM 46.4 °F 41.9 °F 33.8 °F 62% 29.86 in 10.0 mi NNE 9.2 mph - N/A   Clear
11:16 AM 48.2 °F - 33.8 °F 58% 29.86 in 10.0 mi NE 9.2 mph - N/A   Clear
11:36 AM 50.0 °F - 33.8 °F 54% 29.86 in 10.0 mi NNE 10.4 mph - N/A   Clear
11:56 AM 51.8 °F - 33.8 °F 50% 29.86 in 10.0 mi NE 11.5 mph - N/A   Clear
12:16 PM 51.8 °F - 35.6 °F 54% 29.85 in 10.0 mi NNE 8.1 mph - N/A   Clear
12:36 PM 53.6 °F - 35.6 °F 51% 29.85 in 10.0 mi NE 9.2 mph - N/A   Clear
12:56 PM 55.4 °F - 35.6 °F 47% 29.85 in 10.0 mi NE 8.1 mph - N/A   Clear
1:16 PM 55.4 °F - 35.6 °F 47% 29.85 in 10.0 mi NNE 9.2 mph - N/A   Clear
1:36 PM 57.2 °F - 37.4 °F 48% 29.85 in 10.0 mi NE 6.9 mph - N/A   Clear
1:56 PM 57.2 °F - 37.4 °F 48% 29.82 in 10.0 mi NNE 8.1 mph - N/A   Partly Cloudy
2:16 PM 60.8 °F - 39.2 °F 45% 29.82 in 10.0 mi SE 9.2 mph - N/A   Mostly Cloudy
2:36 PM 60.8 °F - 39.2 °F 45% 29.81 in 10.0 mi SE 10.4 mph 16.1 mph N/A   Mostly Cloudy
2:56 PM 60.8 °F - 39.2 °F 45% 29.81 in 10.0 mi SE 11.5 mph 18.4 mph N/A   Partly Cloudy
3:16 PM 62.6 °F - 39.2 °F 42% 29.81 in 10.0 mi ESE 15.0 mph 19.6 mph N/A   Scattered Clouds
3:36 PM 60.8 °F - 39.2 °F 45% 29.81 in 10.0 mi SE 9.2 mph - N/A   Mostly Cloudy
3:56 PM 60.8 °F - 39.2 °F 45% 29.80 in 9.0 mi SE 13.8 mph 19.6 mph N/A   Mostly Cloudy
4:16 PM 62.6 °F - 39.2 °F 42% 29.80 in 10.0 mi SE 8.1 mph - N/A   Mostly Cloudy
4:36 PM 62.6 °F - 37.4 °F 39% 29.79 in 10.0 mi SE 8.1 mph - N/A   Mostly Cloudy
4:56 PM 62.6 °F - 37.4 °F 39% 29.79 in 10.0 mi SE 6.9 mph - N/A   Scattered Clouds
5:16 PM 62.6 °F - 37.4 °F 39% 29.79 in 10.0 mi East 9.2 mph 16.1 mph N/A   Mostly Cloudy
5:36 PM 60.8 °F - 37.4 °F 42% 29.79 in 10.0 mi ESE 9.2 mph - N/A   Scattered Clouds
5:56 PM 60.8 °F - 37.4 °F 42% 29.79 in 10.0 mi ESE 6.9 mph - N/A   Clear
6:16 PM 62.6 °F - 37.4 °F 39% 29.78 in 10.0 mi SSE 10.4 mph - N/A   Clear
6:36 PM 62.6 °F - 37.4 °F 39% 29.78 in 10.0 mi ESE 8.1 mph - N/A   Clear
6:56 PM 62.6 °F - 35.6 °F 37% 29.78 in 10.0 mi ESE 8.1 mph - N/A   Clear
7:16 PM 62.6 °F - 37.4 °F 39% 29.77 in 10.0 mi SE 9.2 mph - N/A   Clear
7:36 PM 62.6 °F - 37.4 °F 39% 29.77 in 10.0 mi SSE 5.8 mph - N/A   Clear
7:56 PM 62.6 °F - 37.4 °F 39% 29.76 in 10.0 mi SE 6.9 mph - N/A   Clear
8:16 PM 62.6 °F - 37.4 °F 39% 29.76 in 10.0 mi SE 8.1 mph - N/A   Clear
8:36 PM 60.8 °F - 39.2 °F 45% 29.76 in 10.0 mi SSE 3.5 mph - N/A   Clear
8:56 PM 60.8 °F - 39.2 °F 45% 29.75 in 10.0 mi SE 3.5 mph - N/A   Clear
9:16 PM 60.8 °F - 39.2 °F 45% 29.76 in 10.0 mi Calm Calm - N/A   Clear
9:36 PM 60.8 °F - 39.2 °F 45% 29.76 in 9.0 mi Calm Calm - N/A   Clear
9:56 PM 60.8 °F - 39.2 °F 45% 29.76 in 10.0 mi Calm Calm - N/A   Clear
10:16 PM 57.2 °F - 39.2 °F 51% 29.76 in 9.0 mi North 3.5 mph - N/A   Clear
10:36 PM 55.4 °F - 41.0 °F 58% 29.76 in 10.0 mi NNE 4.6 mph - N/A   Clear
10:56 PM 53.6 °F - 37.4 °F 54% 29.79 in 10.0 mi NE 6.9 mph - N/A   Clear
11:16 PM 53.6 °F - 37.4 °F 54% 29.79 in 10.0 mi ENE 4.6 mph - N/A   Clear
11:36 PM 51.8 °F - 35.6 °F 54% 29.79 in 10.0 mi NNE 5.8 mph - N/A   Clear
11:56 PM 46.4 °F 42.4 °F 35.6 °F 66% 29.80 in 10.0 mi North 8.1 mph - N/A   Clear